Home > Weather > Locarno > Past weeks

Flag for Switzerland Past Weather in Locarno, Ticino, Switzerland — Yesterday and Last 2 Weeks

Now
70 °F

Fog.


Feels Like: 70 °F
Forecast: 50 / 70 °F
Wind: 2 mph from East

Location: Locarno-Monti

Current Time: Jun 30, 2016 at 12:35:34 PM

Latest Report: Jun 30, 2016 at 11:00 AM


Visibility: 6 mi

Pressure: 30.00 "Hg

Humidity: 82%

Dew Point: 65 °F

Location of LocarnoLocation

Past Weather in Locarno — Graph

°F

Locarno Temperature Yesterday

Maximum temperature yesterday: 83 °F (at 3:00 PM)
Minimum temperature yesterday: 67 °F (at 8:00 AM)
Average temperature yesterday: 73 °F

High & Low Weather Summary for the Past Weeks

 TemperatureHumidityPressure
High88 °F (Jun 24, 4:00 PM)99% (Jun 16, 6:00 PM)30.24 "Hg (Jun 16, 6:00 PM)
Low53 °F (Jun 17, 6:00 AM)23% (Jun 27, 6:00 PM)29.56 "Hg (Jun 16, 11:00 PM)
Average69 °F65%29.98 "Hg
* Reported Jun 15 11:00 AM — Jun 30 11:00 AM, Locarno, Weather by CustomWeather, © 2016

Note: Actual official high and low records may vary slightly from our data, if they occured in-between our weather recording intervals... More about our weather records

Advertising

Locarno Weather History for the Previous 24 Hours

Scroll right to see more
 ConditionsComfort  
Time TempWeatherWind HumidityBarometerVisibility
11:00 AM
Thu, Jun 30
70 °FFog.2 mph82%30.00 "Hg6 mi
10:00 AM70 °FMild.2 mph84%30.01 "HgN/A
9:00 AM67 °FMild.3 mph88%30.01 "HgN/A
8:00 AM66 °FFog.1 mph95%30.01 "Hg6 mi
7:00 AM65 °FMild.1 mph94%30.01 "HgN/A
6:00 AM66 °FMild.2 mph92%29.99 "HgN/A
5:00 AM66 °FMild.2 mph92%30.00 "HgN/A
4:00 AM67 °FMild.5 mph88%29.98 "HgN/A
3:00 AM67 °FMild.2 mph86%29.99 "HgN/A
2:00 AM71 °FMild.1 mph72%29.97 "HgN/A
1:00 AM72 °FMild.2 mph65%29.97 "HgN/A
12:00 AM72 °FMild.3 mph68%29.97 "HgN/A
11:00 PM
Wed, Jun 29
73 °FMild.No wind62%29.97 "HgN/A
10:00 PM73 °FMild.3 mph60%29.96 "HgN/A
9:00 PM75 °FMild.2 mph59%29.94 "HgN/A
8:00 PM78 °FScattered clouds.2 mph51%29.93 "Hg10 mi
7:00 PM78 °FWarm.3 mph52%29.92 "HgN/A
5:00 PM80 °FScattered clouds.3 mph47%29.94 "Hg10 mi
4:00 PM82 °FWarm.5 mph52%29.95 "HgN/A
3:00 PM83 °FWarm.5 mph48%29.95 "HgN/A
2:00 PM80 °FScattered clouds.3 mph51%29.97 "Hg10 mi
1:00 PM78 °FWarm.5 mph56%30.00 "HgN/A
12:00 PM76 °FMild.2 mph59%30.01 "HgN/A
Weather by CustomWeather, © 2016

See weather overviewHow to use our weather pages